Tracking 29606 objects as of 19-Sep-2024
HD Live streaming from Space Station
objects crossing your sky now

STARLINK-3870

Track STARLINK-3870 now!
10-day predictions
STARLINK-3870 is classified as:


NORAD ID: 52451
Int'l Code: 2022-049A
Perigee: 545.9 km
Apogee: 547.8 km
Inclination: 53.2 °
Period: 95.4 minutes
Semi major axis: 6917 km
RCS: Unknown
Launch date: May 6, 2022
Source: United States (US)
Launch site: AIR FORCE EASTERN TEST RANGE (AFETR)
Your satellite tracking list
Your tracking list is empty




NASA's NSSDC Master Catalog

Two Line Element Set (TLE):
1 52451U 22049A   24262.43870806 -.00001586  00000-0 -81582-4 0  9996
2 52451  53.2162 320.9317 0001374 107.9255 252.1887 15.08838039131000
Source of the keplerian elements: AFSPC